This is the latest recevied weather packets stored in our database for station/object KE5OYL. If no packets are shown the sender has not sent any weather packets the latest 10 day(s).
| Time | Temp. | Humidity | Pressure | Rain* | Wind** | Luminosity | Snow |
|---|---|---|---|---|---|---|---|
| 1777718740 | 12.78° C | 79% | 1020.2 hPa | 0 mm | - | 0 W/m² | - |
| 1777718437 | 12.78° C | 79% | 1020.1 hPa | 0 mm | - | 0 W/m² | - |
| 1777718135 | 12.78° C | 79% | 1020.2 hPa | 0 mm | - | 0 W/m² | - |
| 1777717833 | 12.22° C | 80% | 1020.4 hPa | 0 mm | - | 0 W/m² | - |
| 1777717529 | 12.22° C | 80% | 1020 hPa | 0 mm | - | 0 W/m² | - |
| 1777717226 | 12.78° C | 79% | 1020 hPa | 0 mm | - | 0 W/m² | - |
| 1777716924 | 12.78° C | 78% | 1020.1 hPa | 0 mm | - | 0 W/m² | - |
| 1777716622 | 13.33° C | 76% | 1020 hPa | 0 mm | - | 0 W/m² | - |
| 1777716321 | 13.33° C | 75% | 1019.6 hPa | 0 mm | - | 0 W/m² | - |
| 1777716018 | 13.89° C | 74% | 1019.6 hPa | 0 mm | - | 0 W/m² | - |
| 1777715715 | 13.89° C | 72% | 1019.6 hPa | 0 mm | - | 0 W/m² | - |
| 1777715413 | 13.89° C | 71% | 1019.7 hPa | 0 mm | - | 0 W/m² | - |
| 1777715110 | 13.89° C | 71% | 1019.6 hPa | 0 mm | - | 0 W/m² | - |
| 1777714809 | 13.89° C | 72% | 1019.5 hPa | 0 mm | - | 0 W/m² | - |
| 1777714507 | 13.89° C | 73% | 1019.7 hPa | 0 mm | - | 0 W/m² | - |
| 1777714204 | 13.89° C | 73% | 1019.7 hPa | 0 mm | - | 0 W/m² | - |
| 1777713901 | 13.33° C | 74% | 1019.6 hPa | 0 mm | - | 0 W/m² | - |
| 1777713598 | 13.89° C | 73% | 1019.6 hPa | 0 mm | - | 0 W/m² | - |
| 1777713295 | 13.89° C | 73% | 1019.6 hPa | 0 mm | - | 0 W/m² | - |
| 1777712992 | 13.89° C | 74% | 1019.5 hPa | 0 mm | - | 0 W/m² | - |
| 1777712689 | 13.89° C | 74% | 1019.6 hPa | 0 mm | - | 0 W/m² | - |
| 1777712385 | 13.89° C | 74% | 1019.5 hPa | 0 mm | - | 0 W/m² | - |
| 1777712081 | 13.89° C | 74% | 1019.3 hPa | 0 mm | - | 0 W/m² | - |
| 1777711779 | 13.89° C | 73% | 1019.6 hPa | 0 mm | - | 0 W/m² | - |
| 1777711476 | 13.89° C | 73% | 1019.7 hPa | 0 mm | - | 0 W/m² | - |
* Rain latest hour (hover to see other rain measurements)
** Current wind speed in m/s (hover to see current wind gust speed)